ABY588 VCBI-OMSJ

Flight info

Callsign ABY588
Flight time N/A
Altitude 34000
Route BASUR1D BASUR P570 OLNIK/N0454F360 P570 MIXAM Z890 GERAR B540 KUPMA/N0380F240 B540 ORKOB/N0367F220 T891 NOLSU
Aircraft A320/M-SDE3FGHIRWY/LB1

Departure

Time 2026-05-05 20:51
Airport Bandaranaike International Colombo Airport (VCBI)

Arrival

Time N/A
Airport Sharjah International Airport (OMSJ)
Time Latitude Longitude Altitude Speed Heading
2026-05-05 20:37 7.17686 79.88471 27 ft 0 kts 217°
2026-05-05 20:43 7.17694 79.88477 27 ft 2 kts 217°
2026-05-05 20:43 7.17708 79.88487 27 ft 2 kts 217°
2026-05-05 20:43 7.17721 79.88498 27 ft 2 kts 217°
2026-05-05 20:44 7.17735 79.88509 27 ft 2 kts 217°
2026-05-05 20:44 7.17749 79.88519 27 ft 2 kts 217°
2026-05-05 20:44 7.17763 79.88530 27 ft 2 kts 248°
2026-05-05 20:44 7.17765 79.88544 27 ft 0 kts 310°
2026-05-05 20:45 7.17788 79.88517 27 ft 8 kts 311°
2026-05-05 20:45 7.17828 79.88471 27 ft 8 kts 311°
2026-05-05 20:45 7.17861 79.88434 27 ft 7 kts 315°
2026-05-05 20:46 7.17920 79.88451 27 ft 13 kts 37°
2026-05-05 20:46 7.18004 79.88515 27 ft 16 kts 37°
2026-05-05 20:46 7.18096 79.88586 27 ft 17 kts 37°
2026-05-05 20:46 7.18190 79.88658 27 ft 17 kts 37°
2026-05-05 20:47 7.18286 79.88731 27 ft 18 kts 37°
2026-05-05 20:47 7.18385 79.88807 27 ft 18 kts 37°
2026-05-05 20:47 7.18485 79.88884 28 ft 19 kts 37°
2026-05-05 20:47 7.18590 79.88964 28 ft 19 kts 37°
2026-05-05 20:48 7.18699 79.89047 28 ft 20 kts 37°
2026-05-05 20:48 7.18811 79.89133 28 ft 21 kts 37°
2026-05-05 20:48 7.18928 79.89223 27 ft 22 kts 37°
2026-05-05 20:48 7.19051 79.89315 27 ft 22 kts 37°
2026-05-05 20:49 7.19151 79.89391 27 ft 11 kts 37°
2026-05-05 20:49 7.19211 79.89405 27 ft 8 kts 331°
2026-05-05 20:49 7.19244 79.89365 26 ft 7 kts 307°
2026-05-05 20:49 7.19269 79.89331 26 ft 5 kts 307°
2026-05-05 20:50 7.19296 79.89292 26 ft 8 kts 294°
2026-05-05 20:50 7.19275 79.89261 27 ft 10 kts 216°
2026-05-05 20:50 7.19118 79.89142 28 ft 55 kts 217°
2026-05-05 20:50 7.18633 79.88772 29 ft 117 kts 217°
2026-05-05 20:51 7.17846 79.88170 31 ft 165 kts 217°
2026-05-05 20:51 7.16862 79.87411 377 ft 179 kts 217°
2026-05-05 20:51 7.15899 79.86645 1156 ft 175 kts 219°
2026-05-05 20:51 7.15201 79.85621 1533 ft 191 kts 258°
2026-05-05 20:52 7.15361 79.84270 1875 ft 203 kts 292°
2026-05-05 20:52 7.16009 79.82971 2282 ft 213 kts 298°
2026-05-05 20:52 7.16760 79.81633 2596 ft 229 kts 299°
2026-05-05 20:52 7.17587 79.80181 2909 ft 249 kts 298°
2026-05-05 20:53 7.18470 79.78622 3351 ft 263 kts 299°
2026-05-05 20:53 7.19402 79.77010 3979 ft 269 kts 300°
2026-05-05 20:53 7.20382 79.75381 4699 ft 274 kts 301°
2026-05-05 20:53 7.21407 79.73758 5456 ft 275 kts 302°
2026-05-05 20:54 7.22470 79.72154 6244 ft 275 kts 303°
2026-05-05 20:54 7.23574 79.70570 6944 ft 279 kts 304°
2026-05-05 20:54 7.24656 79.68929 7563 ft 284 kts 296°
2026-05-05 20:54 7.25483 79.67110 8169 ft 289 kts 294°
2026-05-05 20:55 7.26321 79.65254 8785 ft 293 kts 294°
2026-05-05 20:55 7.27180 79.63390 9427 ft 295 kts 295°
2026-05-05 20:55 7.27762 79.62124 9881 ft 295 kts 294°
2026-05-05 20:55 7.28623 79.60216 10268 ft 309 kts 293°
2026-05-05 20:56 7.29504 79.58198 10401 ft 329 kts 293°
2026-05-05 20:56 7.30444 79.56026 10533 ft 348 kts 293°
2026-05-05 20:56 7.31443 79.53737 10653 ft 365 kts 293°
2026-05-05 20:56 7.32497 79.51344 10791 ft 381 kts 294°
2026-05-05 20:57 7.33986 79.47998 10963 ft 401 kts 294°
2026-05-05 20:57 7.34752 79.46291 11157 ft 406 kts 294°
2026-05-05 20:57 7.35920 79.43690 11573 ft 409 kts 294°
2026-05-05 20:57 7.37097 79.41069 12034 ft 412 kts 294°
2026-05-05 20:58 7.38278 79.38435 12482 ft 414 kts 294°
2026-05-05 20:58 7.39463 79.35788 12912 ft 416 kts 294°
2026-05-05 20:58 7.40654 79.33122 13334 ft 418 kts 294°
2026-05-05 20:58 7.41852 79.30438 13722 ft 422 kts 294°
2026-05-05 20:59 7.43057 79.27741 14124 ft 424 kts 294°
2026-05-05 20:59 7.44271 79.25023 14515 ft 426 kts 294°
2026-05-05 20:59 7.45487 79.22294 14871 ft 428 kts 293°
2026-05-05 20:59 7.46710 79.19548 15248 ft 431 kts 293°
2026-05-05 21:00 7.47938 79.16792 15624 ft 433 kts 293°
2026-05-05 21:00 7.49177 79.14013 15967 ft 435 kts 294°
2026-05-05 21:00 7.50421 79.11232 16317 ft 437 kts 294°
2026-05-05 21:00 7.51673 79.08434 16635 ft 439 kts 294°
2026-05-05 21:01 7.52928 79.05624 16942 ft 441 kts 293°
2026-05-05 21:01 7.54189 79.02798 17268 ft 443 kts 293°
2026-05-05 21:01 7.55451 78.99960 17571 ft 445 kts 293°
2026-05-05 21:01 7.56724 78.97106 17869 ft 447 kts 293°
2026-05-05 21:02 7.58002 78.94248 18166 ft 449 kts 293°
2026-05-05 21:02 7.59284 78.91378 18446 ft 450 kts 293°
2026-05-05 21:02 7.60570 78.88491 18694 ft 453 kts 293°
2026-05-05 21:02 7.61862 78.85585 18947 ft 455 kts 293°
2026-05-05 21:03 7.63160 78.82668 19231 ft 456 kts 293°
2026-05-05 21:03 7.64457 78.79755 19543 ft 456 kts 294°
2026-05-05 21:03 7.65760 78.76831 19782 ft 458 kts 294°
2026-05-05 21:03 7.67068 78.73895 20016 ft 460 kts 293°
2026-05-05 21:04 7.68379 78.70949 20242 ft 462 kts 294°
2026-05-05 21:04 7.69696 78.67985 20452 ft 464 kts 293°
2026-05-05 21:04 7.71015 78.65014 20655 ft 465 kts 294°
2026-05-05 21:04 7.72343 78.62033 20853 ft 467 kts 294°
2026-05-05 21:05 7.73676 78.59042 21028 ft 469 kts 294°
2026-05-05 21:05 7.75012 78.56030 21196 ft 471 kts 294°
2026-05-05 21:05 7.76351 78.53012 21372 ft 473 kts 294°
2026-05-05 21:05 7.77698 78.49980 21537 ft 474 kts 294°
2026-05-05 21:06 7.79045 78.46943 21689 ft 475 kts 294°
2026-05-05 21:06 7.80398 78.43892 21853 ft 477 kts 294°
2026-05-05 21:06 7.81753 78.40836 21997 ft 479 kts 294°
2026-05-05 21:06 7.83112 78.37772 22142 ft 480 kts 294°
2026-05-05 21:07 7.84480 78.34691 22283 ft 481 kts 294°
2026-05-05 21:07 7.85849 78.31609 22419 ft 483 kts 294°
2026-05-05 21:07 7.87225 78.28516 22563 ft 484 kts 294°
2026-05-05 21:07 7.88585 78.25456 22698 ft 485 kts 294°
2026-05-05 21:08 7.89982 78.22305 22825 ft 487 kts 294°
2026-05-05 21:08 7.91346 78.19226 22956 ft 488 kts 294°
2026-05-05 21:08 7.92753 78.16054 23089 ft 489 kts 294°
2026-05-05 21:08 7.94125 78.12959 23216 ft 490 kts 294°
2026-05-05 21:09 7.95520 78.09815 23342 ft 492 kts 294°
2026-05-05 21:09 7.96919 78.06667 23486 ft 492 kts 294°
2026-05-05 21:09 7.98319 78.03522 23672 ft 492 kts 294°
2026-05-05 21:09 7.99740 78.00327 23858 ft 492 kts 294°
2026-05-05 21:10 8.01120 77.97221 24032 ft 492 kts 293°
2026-05-05 21:10 8.02516 77.94073 24204 ft 492 kts 293°
2026-05-05 21:10 8.03913 77.90925 24390 ft 492 kts 293°
2026-05-05 21:10 8.05310 77.87774 24575 ft 492 kts 293°
2026-05-05 21:11 8.06707 77.84630 24779 ft 491 kts 293°
2026-05-05 21:11 8.08104 77.81484 24965 ft 491 kts 294°
2026-05-05 21:11 8.09499 77.78341 25164 ft 491 kts 294°
2026-05-05 21:11 8.10892 77.75203 25352 ft 490 kts 294°
2026-05-05 21:12 8.12287 77.72062 25566 ft 490 kts 294°
2026-05-05 21:12 8.13680 77.68924 25763 ft 490 kts 294°
2026-05-05 21:12 8.15069 77.65791 25965 ft 489 kts 294°
2026-05-05 21:12 8.16458 77.62657 26174 ft 489 kts 294°
2026-05-05 21:13 8.17847 77.59522 26385 ft 489 kts 294°
2026-05-05 21:13 8.19233 77.56394 26603 ft 488 kts 294°
2026-05-05 21:13 8.20619 77.53264 26812 ft 488 kts 294°
2026-05-05 21:13 8.22001 77.50138 27032 ft 488 kts 294°
2026-05-05 21:14 8.23382 77.47010 27253 ft 487 kts 294°
2026-05-05 21:14 8.24763 77.43888 27472 ft 487 kts 294°
2026-05-05 21:14 8.26143 77.40767 27706 ft 487 kts 294°
2026-05-05 21:14 8.27521 77.37650 27944 ft 486 kts 294°
2026-05-05 21:15 8.28897 77.34537 28184 ft 485 kts 294°
2026-05-05 21:15 8.30273 77.31429 28429 ft 485 kts 294°
2026-05-05 21:15 8.31649 77.28324 28672 ft 484 kts 294°
2026-05-05 21:15 8.33021 77.25220 28908 ft 484 kts 294°
2026-05-05 21:16 8.34391 77.22119 29136 ft 483 kts 294°
2026-05-05 21:16 8.35759 77.19019 29350 ft 483 kts 294°
2026-05-05 21:16 8.37123 77.15923 29559 ft 483 kts 294°
2026-05-05 21:16 8.38486 77.12823 29790 ft 482 kts 294°
2026-05-05 21:17 8.39849 77.09723 30027 ft 482 kts 294°
2026-05-05 21:17 8.41213 77.06632 30247 ft 482 kts 294°
2026-05-05 21:17 8.42574 77.03545 30479 ft 481 kts 294°
2026-05-05 21:17 8.43934 77.00458 30710 ft 481 kts 294°
2026-05-05 21:18 8.45294 76.97376 30929 ft 480 kts 294°
2026-05-05 21:18 8.46655 76.94305 31157 ft 480 kts 295°
2026-05-05 21:18 8.48263 76.91359 31372 ft 479 kts 303°
2026-05-05 21:18 8.50191 76.88616 31591 ft 479 kts 306°
2026-05-05 21:19 8.52137 76.85889 31817 ft 478 kts 306°
2026-05-05 21:19 8.54081 76.83163 32048 ft 478 kts 306°
2026-05-05 21:19 8.56021 76.80439 32279 ft 477 kts 306°
2026-05-05 21:19 8.57956 76.77719 32490 ft 477 kts 306°
2026-05-05 21:20 8.59895 76.74997 32709 ft 476 kts 306°
2026-05-05 21:20 8.61828 76.72284 32953 ft 475 kts 306°
2026-05-05 21:20 8.63759 76.69572 33190 ft 475 kts 306°
2026-05-05 21:20 8.65687 76.66863 33382 ft 475 kts 306°
2026-05-05 21:21 8.67613 76.64153 33598 ft 475 kts 306°
2026-05-05 21:21 8.69538 76.61444 33770 ft 475 kts 306°
2026-05-05 21:21 8.73411 76.55991 33815 ft 481 kts 305°
2026-05-05 21:22 8.77326 76.50475 33813 ft 483 kts 305°
2026-05-05 21:22 8.81246 76.44951 33814 ft 484 kts 306°
2026-05-05 21:23 8.85172 76.39426 33818 ft 484 kts 305°
2026-05-05 21:23 8.89095 76.33904 33825 ft 483 kts 305°
2026-05-05 21:24 8.93017 76.28382 33820 ft 484 kts 305°
2026-05-05 21:24 8.96910 76.22888 33822 ft 484 kts 305°
2026-05-05 21:25 9.00826 76.17355 33824 ft 484 kts 305°
2026-05-05 21:25 9.04742 76.11824 33826 ft 483 kts 305°
2026-05-05 21:26 9.08660 76.06298 33830 ft 483 kts 305°
2026-05-05 21:26 9.12579 76.00769 33838 ft 483 kts 305°
2026-05-05 21:27 9.16488 75.95241 33831 ft 483 kts 305°
2026-05-05 21:27 9.20392 75.89715 33831 ft 482 kts 305°
2026-05-05 21:28 9.24295 75.84194 33829 ft 482 kts 305°
2026-05-05 21:28 9.28194 75.78673 33828 ft 482 kts 305°
2026-05-05 21:29 9.32096 75.73150 33829 ft 482 kts 305°
2026-05-05 21:29 9.35994 75.67619 33831 ft 483 kts 305°
2026-05-05 21:30 9.39900 75.62089 33835 ft 483 kts 305°
2026-05-05 21:30 9.43803 75.56555 33834 ft 483 kts 305°
2026-05-05 21:31 9.47701 75.51025 33834 ft 482 kts 305°
2026-05-05 21:31 9.51594 75.45494 33835 ft 482 kts 305°
2026-05-05 21:32 9.55489 75.39964 33834 ft 482 kts 305°
2026-05-05 21:32 9.59385 75.34431 33835 ft 482 kts 305°
2026-05-05 21:33 9.63245 75.28935 33834 ft 482 kts 305°
2026-05-05 21:33 9.67136 75.23402 33835 ft 482 kts 305°
2026-05-05 21:34 9.71032 75.17871 33836 ft 482 kts 305°
2026-05-05 21:34 9.74930 75.12335 33840 ft 482 kts 305°
2026-05-05 21:35 9.78814 75.06802 33841 ft 482 kts 305°
2026-05-05 21:35 9.82692 75.01272 33838 ft 481 kts 305°
2026-05-05 21:36 9.86568 74.95734 33836 ft 481 kts 305°
2026-05-05 21:36 9.90442 74.90211 33836 ft 481 kts 305°
2026-05-05 21:37 9.94319 74.84688 33835 ft 481 kts 305°
2026-05-05 21:37 9.98199 74.79163 33840 ft 481 kts 305°
2026-05-05 21:38 10.02074 74.73629 33845 ft 481 kts 305°
2026-05-05 21:38 10.05935 74.68096 33849 ft 480 kts 305°
2026-05-05 21:39 10.09801 74.62575 33853 ft 480 kts 305°
2026-05-05 21:39 10.13667 74.57054 33855 ft 480 kts 305°
2026-05-05 21:40 10.17532 74.51529 33854 ft 480 kts 305°
2026-05-05 21:40 10.20743 74.46932 33859 ft 480 kts 305°
2026-05-05 21:41 10.24599 74.41401 33861 ft 479 kts 305°
2026-05-05 21:41 10.28452 74.35881 33860 ft 479 kts 305°
2026-05-05 21:42 10.32309 74.30364 33860 ft 479 kts 305°
2026-05-05 21:42 10.36798 74.23952 33861 ft 479 kts 305°
2026-05-05 21:43 10.40013 74.19322 33859 ft 479 kts 305°
2026-05-05 21:43 10.43871 74.13803 33858 ft 479 kts 305°
2026-05-05 21:44 10.47760 74.08316 33856 ft 479 kts 306°
2026-05-05 21:44 10.51661 74.02830 33855 ft 479 kts 306°
2026-05-05 21:45 10.55542 73.97334 33855 ft 479 kts 305°
2026-05-05 21:45 10.59423 73.91826 33859 ft 479 kts 305°
2026-05-05 21:46 10.63299 73.86314 33858 ft 479 kts 305°
2026-05-05 21:46 10.67171 73.80808 33853 ft 479 kts 305°
2026-05-05 21:47 10.71053 73.75299 33851 ft 479 kts 305°
2026-05-05 21:47 10.74934 73.69796 33847 ft 479 kts 305°
2026-05-05 21:48 10.78808 73.64287 33848 ft 479 kts 305°
2026-05-05 21:48 10.82692 73.58767 33849 ft 480 kts 305°
2026-05-05 21:49 10.86572 73.53242 33851 ft 480 kts 305°
2026-05-05 21:49 10.90423 73.47747 33851 ft 480 kts 305°
2026-05-05 21:50 10.94306 73.42220 33851 ft 480 kts 305°
2026-05-05 21:50 10.98190 73.36695 33848 ft 480 kts 305°
2026-05-05 21:51 11.02057 73.31163 33845 ft 480 kts 305°
2026-05-05 21:51 11.05934 73.25635 33842 ft 480 kts 305°
2026-05-05 21:52 11.11744 73.17342 33842 ft 480 kts 305°
2026-05-05 21:53 11.15625 73.11806 33847 ft 480 kts 305°
2026-05-05 21:53 11.19500 73.06268 33850 ft 480 kts 305°
2026-05-05 21:54 11.23374 73.00722 33855 ft 480 kts 305°
2026-05-05 21:54 11.27248 72.95186 33855 ft 480 kts 305°
2026-05-05 21:55 11.31118 72.89640 33856 ft 480 kts 305°
2026-05-05 21:55 11.34981 72.84099 33856 ft 479 kts 305°
2026-05-05 21:56 11.38838 72.78564 33856 ft 479 kts 305°
2026-05-05 21:56 11.42695 72.73036 33855 ft 478 kts 305°
2026-05-05 21:57 11.46550 72.67518 33853 ft 478 kts 305°
2026-05-05 21:57 11.50395 72.61997 33852 ft 478 kts 305°
2026-05-05 21:58 11.54239 72.56475 33850 ft 477 kts 305°
2026-05-05 21:58 11.58076 72.50960 33849 ft 476 kts 305°
2026-05-05 21:59 11.61910 72.45452 33850 ft 476 kts 305°
2026-05-05 21:59 11.65733 72.39944 33848 ft 475 kts 305°
2026-05-05 22:00 11.69553 72.34435 33850 ft 476 kts 305°
2026-05-05 22:00 11.73376 72.28932 33850 ft 475 kts 305°
2026-05-05 22:01 11.77201 72.23434 33851 ft 475 kts 305°
2026-05-05 22:01 11.81007 72.17937 33847 ft 474 kts 305°
2026-05-05 22:02 11.84808 72.12447 33843 ft 473 kts 305°
2026-05-05 22:02 11.88609 72.06972 33837 ft 472 kts 305°
2026-05-05 22:03 11.92402 72.01500 33835 ft 472 kts 305°
2026-05-05 22:03 11.96204 71.96087 33831 ft 472 kts 306°
2026-05-05 22:04 12.00132 71.90702 33832 ft 473 kts 307°
2026-05-05 22:04 12.04081 71.85331 33836 ft 472 kts 307°
2026-05-05 22:05 12.08027 71.79905 33831 ft 473 kts 306°
2026-05-05 22:05 12.11933 71.74502 33838 ft 473 kts 306°
2026-05-05 22:06 12.15810 71.69128 33835 ft 473 kts 306°
2026-05-05 22:06 12.19712 71.63725 33834 ft 472 kts 306°
2026-05-05 22:07 12.23620 71.58322 33832 ft 472 kts 306°
2026-05-05 22:07 12.27526 71.52918 33828 ft 473 kts 306°
2026-05-05 22:08 12.31432 71.47507 33826 ft 473 kts 306°
2026-05-05 22:08 12.35341 71.42098 33826 ft 473 kts 306°
2026-05-05 22:09 12.39250 71.36679 33830 ft 473 kts 306°
2026-05-05 22:09 12.43155 71.31256 33827 ft 473 kts 306°
2026-05-05 22:10 12.47057 71.25829 33830 ft 474 kts 306°
2026-05-05 22:10 12.50973 71.20405 33826 ft 474 kts 306°
2026-05-05 22:11 12.54892 71.14983 33826 ft 474 kts 306°
2026-05-05 22:11 12.58812 71.09545 33830 ft 475 kts 306°
2026-05-05 22:12 12.62727 71.04090 33833 ft 475 kts 306°
2026-05-05 22:12 12.66645 70.98631 33838 ft 476 kts 306°
2026-05-05 22:13 12.70571 70.93176 33841 ft 476 kts 306°
2026-05-05 22:13 12.74471 70.87757 33844 ft 476 kts 306°
2026-05-05 22:14 12.78403 70.82297 33845 ft 476 kts 306°
2026-05-05 22:14 12.82321 70.76822 33842 ft 476 kts 306°
2026-05-05 22:15 12.86239 70.71352 33840 ft 476 kts 306°
2026-05-05 22:15 12.90166 70.65882 33839 ft 476 kts 306°
2026-05-05 22:16 12.94093 70.60410 33836 ft 476 kts 306°
2026-05-05 22:16 12.98019 70.54933 33835 ft 477 kts 306°
2026-05-05 22:17 13.01943 70.49450 33836 ft 477 kts 306°
2026-05-05 22:17 13.05867 70.43956 33838 ft 478 kts 306°
2026-05-05 22:18 13.09786 70.38452 33838 ft 478 kts 306°
2026-05-05 22:18 13.13697 70.32926 33845 ft 479 kts 306°
2026-05-05 22:19 13.17616 70.27400 33846 ft 479 kts 306°
2026-05-05 22:19 13.21537 70.21882 33844 ft 479 kts 306°
2026-05-05 22:20 13.25452 70.16352 33843 ft 479 kts 306°
2026-05-05 22:20 13.29366 70.10823 33841 ft 479 kts 306°
2026-05-05 22:21 13.33284 70.05293 33836 ft 479 kts 306°
2026-05-05 22:21 13.37199 69.99760 33835 ft 480 kts 306°
2026-05-05 22:22 13.41121 69.94203 33835 ft 480 kts 306°
2026-05-05 22:22 13.45041 69.88648 33829 ft 480 kts 306°
2026-05-05 22:23 13.48965 69.83088 33831 ft 481 kts 305°
2026-05-05 22:23 13.52892 69.77524 33838 ft 481 kts 306°
2026-05-05 22:24 13.56825 69.71952 33835 ft 481 kts 306°
2026-05-05 22:24 13.60754 69.66382 33838 ft 481 kts 306°
2026-05-05 22:25 13.64680 69.60800 33840 ft 482 kts 305°
2026-05-05 22:25 13.68605 69.55210 33846 ft 482 kts 305°
2026-05-05 22:26 13.72539 69.49622 33849 ft 482 kts 306°
2026-05-05 22:26 13.76460 69.44034 33847 ft 482 kts 305°
2026-05-05 22:27 13.80380 69.38445 33848 ft 482 kts 305°
2026-05-05 22:27 13.83641 69.33804 33850 ft 482 kts 306°
2026-05-05 22:28 13.87563 69.28219 33850 ft 481 kts 305°
2026-05-05 22:28 13.91479 69.22628 33850 ft 481 kts 305°
2026-05-05 22:29 13.95393 69.17037 33851 ft 481 kts 305°
2026-05-05 22:29 13.99308 69.11450 33852 ft 481 kts 306°
2026-05-05 22:30 14.03208 69.05860 33854 ft 481 kts 305°
2026-05-05 22:30 14.07112 69.00271 33855 ft 480 kts 306°
2026-05-05 22:31 14.11023 68.94696 33856 ft 480 kts 306°
2026-05-05 22:31 14.14948 68.89149 33856 ft 479 kts 306°
2026-05-05 22:32 14.18883 68.83612 33857 ft 479 kts 306°
2026-05-05 22:32 14.22773 68.78104 33852 ft 478 kts 306°
2026-05-05 22:33 14.26679 68.72558 33848 ft 478 kts 306°
2026-05-05 22:33 14.30584 68.67010 33847 ft 478 kts 306°
2026-05-05 22:34 14.34488 68.61456 33846 ft 478 kts 306°
2026-05-05 22:34 14.38393 68.55909 33846 ft 478 kts 306°
2026-05-05 22:35 14.42296 68.50357 33844 ft 478 kts 306°
2026-05-05 22:35 14.46200 68.44806 33842 ft 478 kts 306°
2026-05-05 22:36 14.50103 68.39256 33846 ft 478 kts 306°
2026-05-05 22:36 14.53996 68.33704 33848 ft 478 kts 306°
2026-05-05 22:37 14.57897 68.28149 33848 ft 478 kts 306°
2026-05-05 22:37 14.61787 68.22594 33847 ft 477 kts 306°
2026-05-05 22:38 14.65674 68.17039 33848 ft 477 kts 306°
2026-05-05 22:38 14.69535 68.11517 33846 ft 477 kts 306°
2026-05-05 22:39 14.73415 68.05963 33845 ft 478 kts 306°
2026-05-05 22:39 14.77310 68.00394 33847 ft 477 kts 306°
2026-05-05 22:40 14.81197 67.94839 33849 ft 477 kts 306°
2026-05-05 22:40 14.85072 67.89277 33850 ft 477 kts 306°
2026-05-05 22:41 14.88944 67.83707 33852 ft 477 kts 306°
2026-05-05 22:41 14.92829 67.78142 33853 ft 477 kts 306°
2026-05-05 22:42 14.96709 67.72576 33855 ft 477 kts 306°
2026-05-05 22:42 15.00578 67.67010 33855 ft 477 kts 306°
2026-05-05 22:43 15.04447 67.61443 33856 ft 477 kts 306°
2026-05-05 22:43 15.08319 67.55873 33855 ft 477 kts 306°
2026-05-05 22:44 15.12189 67.50305 33854 ft 476 kts 306°
2026-05-05 22:44 15.16060 67.44741 33855 ft 476 kts 306°
2026-05-05 22:45 15.19920 67.39173 33857 ft 476 kts 306°
2026-05-05 22:45 15.23770 67.33601 33856 ft 475 kts 306°
2026-05-05 22:46 15.27617 67.28035 33853 ft 475 kts 306°
2026-05-05 22:46 15.31471 67.22472 33852 ft 475 kts 306°
2026-05-05 22:47 15.35320 67.16906 33850 ft 475 kts 306°
2026-05-05 22:47 15.39163 67.11335 33852 ft 475 kts 306°
2026-05-05 22:48 15.43012 67.05765 33850 ft 475 kts 306°
2026-05-05 22:48 15.46851 67.00195 33846 ft 475 kts 306°
2026-05-05 22:49 15.50686 66.94629 33845 ft 474 kts 306°
2026-05-05 22:49 15.54520 66.89064 33848 ft 474 kts 306°
2026-05-05 22:50 15.58354 66.83506 33849 ft 474 kts 306°
2026-05-05 22:50 15.62215 66.77953 33851 ft 474 kts 306°
2026-05-05 22:51 15.66099 66.72422 33853 ft 474 kts 307°
2026-05-05 22:51 15.69989 66.66891 33855 ft 474 kts 306°
2026-05-05 22:52 15.73840 66.61386 33858 ft 474 kts 306°
2026-05-05 22:52 15.77707 66.55844 33859 ft 474 kts 306°
2026-05-05 22:53 15.81570 66.50312 33857 ft 474 kts 306°
2026-05-05 22:53 15.85427 66.44764 33856 ft 473 kts 306°
2026-05-05 22:54 15.89285 66.39231 33854 ft 473 kts 306°
2026-05-05 22:54 15.93145 66.33706 33852 ft 472 kts 306°
2026-05-05 22:55 15.96996 66.28182 33852 ft 472 kts 306°
2026-05-05 22:55 16.00840 66.22659 33850 ft 471 kts 306°
2026-05-05 22:56 16.04674 66.17134 33849 ft 471 kts 306°
2026-05-05 22:56 16.08505 66.11604 33848 ft 471 kts 306°
2026-05-05 22:57 16.12335 66.06076 33848 ft 471 kts 306°
2026-05-05 22:57 16.16169 66.00550 33848 ft 471 kts 306°
2026-05-05 22:58 16.20005 65.95031 33844 ft 470 kts 306°
2026-05-05 22:58 16.23830 65.89509 33840 ft 470 kts 306°
2026-05-05 22:59 16.27665 65.83982 33840 ft 471 kts 306°
2026-05-05 22:59 16.31487 65.78447 33842 ft 471 kts 306°
2026-05-05 23:00 16.37214 65.70132 33847 ft 471 kts 306°
2026-05-05 23:00 16.41037 65.64591 33853 ft 471 kts 306°
2026-05-05 23:01 16.44860 65.59048 33856 ft 471 kts 306°
2026-05-05 23:01 16.48684 65.53503 33860 ft 471 kts 306°
2026-05-05 23:02 16.52504 65.47960 33861 ft 471 kts 306°
2026-05-05 23:02 16.56329 65.42417 33862 ft 471 kts 306°
2026-05-05 23:03 16.60142 65.36872 33861 ft 471 kts 306°
2026-05-05 23:03 16.63945 65.31320 33862 ft 471 kts 305°
2026-05-05 23:04 16.67752 65.25763 33862 ft 471 kts 305°
2026-05-05 23:04 16.71536 65.20247 33862 ft 471 kts 305°
2026-05-05 23:05 16.75348 65.14691 33863 ft 471 kts 305°
2026-05-05 23:05 16.79156 65.09130 33865 ft 471 kts 305°
2026-05-05 23:06 16.82956 65.03565 33864 ft 470 kts 305°
2026-05-05 23:06 16.86757 64.98013 33866 ft 470 kts 305°
2026-05-05 23:07 16.90553 64.92461 33866 ft 469 kts 305°
2026-05-05 23:07 16.94343 64.86912 33864 ft 469 kts 305°
2026-05-05 23:08 16.98131 64.81356 33862 ft 470 kts 305°
2026-05-05 23:08 17.01916 64.75790 33858 ft 470 kts 305°
2026-05-05 23:09 17.05696 64.70222 33859 ft 470 kts 305°
2026-05-05 23:09 17.09486 64.64664 33859 ft 469 kts 305°
2026-05-05 23:10 17.13271 64.59098 33859 ft 470 kts 305°
2026-05-05 23:10 17.17049 64.53532 33861 ft 469 kts 305°
2026-05-05 23:11 17.20832 64.47969 33861 ft 469 kts 304°
2026-05-05 23:11 17.24600 64.42406 33860 ft 469 kts 304°
2026-05-05 23:12 17.28363 64.36844 33860 ft 468 kts 304°
2026-05-05 23:12 17.32185 64.31333 33857 ft 468 kts 306°
2026-05-05 23:13 17.36079 64.25880 33856 ft 468 kts 306°
2026-05-05 23:13 17.39962 64.20415 33853 ft 467 kts 306°
2026-05-05 23:14 17.43816 64.14940 33853 ft 467 kts 305°
2026-05-05 23:14 17.47009 64.10390 33851 ft 467 kts 305°
2026-05-05 23:15 17.50859 64.04920 33854 ft 466 kts 305°
2026-05-05 23:15 17.54703 63.99457 33852 ft 466 kts 305°
2026-05-05 23:16 17.59164 63.93098 33852 ft 466 kts 305°
2026-05-05 23:16 17.62368 63.88516 33852 ft 465 kts 305°